Location: Brienzwiler
(46.7508°N, 8.1014°E)
Time: 17:09:05
(UTC+00:00)

Nadezhda 1 Rocket - Pass Details

Date: 05 July 2020
Orbit: 942 x 1005 km, 83.0° (Epoch: 10 August)

Event Time Altitude Azimuth Distance (km) Brightness Sun altitude
Rises 20:24:10 0° 349° (N) 3,742 8.1 -8.6°
Reaches altitude 10° 20:26:43 10° 348° (NNW) 2,790 7.4 -8.9°
Maximum altitude 20:33:06 72° 266° (W) 1,055 4.3 -9.7°
Drops below altitude 10° 20:39:26 10° 183° (S) 2,762 5.9 -10.4°
Enters shadow 20:41:03 - 181° (S) 3,362 6.4 -10.5°
